• en France
  • Liste des pays
  • À 7 jours
  • Température de l'eau
  • Carte satellitaire
  • Carte météo
  • Widgets météo
  • user-avatar
    Se connecter

    Météo par heure à Olesin

    Ce jour, 17 Août, Vendredi

    Heure Température Précipitation Vent Pression Humidité
    00:00 +20°C° 0 mm 2 m/s 756 mmHg 64%
    01:00 +19°C° 0 mm 2 m/s 756 mmHg 66%
    02:00 +19°C° 0 mm 2 m/s 756 mmHg 67%
    03:00 +18°C° 0 mm 3 m/s 756 mmHg 68%
    04:00 +18°C° 0 mm 3 m/s 756 mmHg 69%
    05:00 +19°C° 0 mm 3 m/s 756 mmHg 68%
    06:00 +20°C° 0 mm 3 m/s 756 mmHg 67%
    07:00 +21°C° 0 mm 3 m/s 756 mmHg 65%
    08:00 +24°C° 0 mm 3 m/s 755 mmHg 60%
    09:00 +26°C° 0 mm 4 m/s 755 mmHg 54%
    10:00 +28°C° 0 mm 4 m/s 755 mmHg 48%
    11:00 +29°C° 0 mm 4 m/s 755 mmHg 46%
    12:00 +30°C° 0 mm 3 m/s 755 mmHg 43%
    13:00 +30°C° 0 mm 3 m/s 755 mmHg 40%
    14:00 +31°C° 0 mm 2 m/s 755 mmHg 39%
    15:00 +31°C° 0 mm 2 m/s 755 mmHg 38%
    16:00 +31°C° 0 mm 2 m/s 754 mmHg 38%
    17:00 +29°C° 0 mm 2 m/s 754 mmHg 43%
    18:00 +28°C° 0 mm 2 m/s 754 mmHg 49%
    19:00 +26°C° 0 mm 2 m/s 754 mmHg 54%
    20:00 +25°C° 0 mm 2 m/s 755 mmHg 57%
    21:00 +24°C° 0 mm 2 m/s 755 mmHg 59%
    22:00 +22°C° 0 mm 3 m/s 755 mmHg 62%
    23:00 +21°C° 0,3 mm 2 m/s 756 mmHg 68%

    Demain, 18 Août, Samedi

    Heure Température Précipitation Vent Pression Humidité
    00:00 +21°C° 0,3 mm 2 m/s 756 mmHg 74%
    01:00 +20°C° 0,3 mm 2 m/s 756 mmHg 80%
    02:00 +20°C° 0,1 mm 2 m/s 756 mmHg 82%
    03:00 +19°C° 0,1 mm 2 m/s 757 mmHg 83%
    04:00 +19°C° 0,1 mm 2 m/s 757 mmHg 85%
    05:00 +20°C° 0 mm 2 m/s 757 mmHg 85%
    06:00 +20°C° 0 mm 3 m/s 757 mmHg 85%
    07:00 +20°C° 0 mm 3 m/s 758 mmHg 84%
    08:00 +22°C° 0,1 mm 3 m/s 758 mmHg 77%
    09:00 +24°C° 0,1 mm 3 m/s 758 mmHg 70%
    10:00 +26°C° 0,1 mm 3 m/s 759 mmHg 63%
    11:00 +27°C° 0,4 mm 3 m/s 758 mmHg 58%
    12:00 +28°C° 0,4 mm 3 m/s 758 mmHg 54%
    13:00 +28°C° 0,4 mm 3 m/s 758 mmHg 49%
    14:00 +28°C° 0 mm 3 m/s 758 mmHg 48%
    15:00 +28°C° 0 mm 3 m/s 758 mmHg 47%
    16:00 +28°C° 0 mm 2 m/s 758 mmHg 46%
    17:00 +27°C° 0 mm 2 m/s 758 mmHg 50%
    18:00 +26°C° 0 mm 2 m/s 758 mmHg 54%
    19:00 +24°C° 0 mm 2 m/s 758 mmHg 58%
    20:00 +23°C° 0 mm 2 m/s 758 mmHg 60%
    21:00 +21°C° 0 mm 2 m/s 759 mmHg 62%
    22:00 +20°C° 0 mm 2 m/s 759 mmHg 65%
    23:00 +19°C° 0 mm 2 m/s 759 mmHg 65%

    Après-demain, 19 Août, Dimanche

    Heure Température Précipitation Vent Pression Humidité
    00:00 +19°C° 0 mm 2 m/s 759 mmHg 66%
    01:00 +20°C° 0 mm 1 m/s 759 mmHg 66%
    02:00 +19°C° 0 mm 1 m/s 759 mmHg 69%
    03:00 +19°C° 0 mm 1 m/s 759 mmHg 71%
    04:00 +19°C° 0 mm 1 m/s 759 mmHg 74%
    05:00 +20°C° 0 mm 1 m/s 759 mmHg 71%
    06:00 +21°C° 0 mm 1 m/s 759 mmHg 68%
    07:00 +22°C° 0 mm 1 m/s 760 mmHg 66%
    08:00 +24°C° 0 mm 1 m/s 760 mmHg 58%
    09:00 +25°C° 0 mm 1 m/s 760 mmHg 50%
    10:00 +27°C° 0 mm 2 m/s 760 mmHg 42%
    11:00 +28°C° 0 mm 2 m/s 759 mmHg 39%
    12:00 +29°C° 0 mm 2 m/s 759 mmHg 37%
    13:00 +29°C° 0 mm 2 m/s 759 mmHg 34%
    14:00 +30°C° 0 mm 2 m/s 758 mmHg 34%
    15:00 +30°C° 0 mm 2 m/s 758 mmHg 34%
    16:00 +30°C° 0 mm 2 m/s 758 mmHg 34%
    17:00 +28°C° 0 mm 1 m/s 758 mmHg 39%
    18:00 +27°C° 0 mm 1 m/s 758 mmHg 44%
    19:00 +25°C° 0 mm 1 m/s 758 mmHg 49%
    20:00 +24°C° 0 mm 1 m/s 758 mmHg 52%
    21:00 +23°C° 0 mm 1 m/s 758 mmHg 54%
    22:00 +22°C° 0 mm 1 m/s 758 mmHg 57%
    23:00 +22°C° 0 mm 1 m/s 758 mmHg 58%

    20 Août, Lundi

    Heure Température Précipitation Vent Pression Humidité
    00:00 +21°C° 0 mm 1 m/s 757 mmHg 59%
    01:00 +21°C° 0 mm 1 m/s 757 mmHg 61%
    02:00 +21°C° 0 mm 1 m/s 757 mmHg 62%
    03:00 +21°C° 0 mm 1 m/s 757 mmHg 62%
    04:00 +20°C° 0 mm 1 m/s 757 mmHg 63%
    05:00 +21°C° 0 mm 1 m/s 757 mmHg 61%
    06:00 +22°C° 0 mm 1 m/s 757 mmHg 59%
    07:00 +24°C° 0 mm 1 m/s 757 mmHg 57%
    08:00 +25°C° 0 mm 1 m/s 757 mmHg 51%
    09:00 +27°C° 0 mm 1 m/s 757 mmHg 45%
    10:00 +29°C° 0 mm 2 m/s 757 mmHg 39%
    11:00 +30°C° 0 mm 2 m/s 756 mmHg 37%
    12:00 +31°C° 0 mm 2 m/s 756 mmHg 35%
    13:00 +31°C° 0 mm 2 m/s 756 mmHg 33%
    14:00 +31°C° 0 mm 2 m/s 756 mmHg 34%
    15:00 +31°C° 0 mm 2 m/s 755 mmHg 34%
    16:00 +31°C° 0 mm 2 m/s 755 mmHg 35%
    17:00 +30°C° 0 mm 1 m/s 755 mmHg 39%
    18:00 +28°C° 0 mm 1 m/s 755 mmHg 44%
    19:00 +27°C° 0 mm 1 m/s 755 mmHg 48%
    20:00 +26°C° 0 mm 1 m/s 755 mmHg 51%
    21:00 +26°C° 0 mm 1 m/s 755 mmHg 53%
    22:00 +25°C° 0 mm 1 m/s 755 mmHg 55%
    23:00 +25°C° 0 mm 1 m/s 755 mmHg 58%

    21 Août, Mardi

    Heure Température Précipitation Vent Pression Humidité
    00:00 +24°C° 0 mm 1 m/s 755 mmHg 61%
    01:00 +24°C° 0 mm 2 m/s 755 mmHg 63%
    02:00 +23°C° 0 mm 2 m/s 755 mmHg 67%
    03:00 +23°C° 0 mm 2 m/s 755 mmHg 70%
    04:00 +21°C° 0 mm 2 m/s 755 mmHg 73%
    05:00 +21°C° 0 mm 3 m/s 756 mmHg 74%
    06:00 +21°C° 0 mm 3 m/s 756 mmHg 74%
    07:00 +22°C° 0 mm 4 m/s 756 mmHg 75%
    08:00 +23°C° 0 mm 4 m/s 757 mmHg 70%
    09:00 +25°C° 0 mm 4 m/s 757 mmHg 65%
    10:00 +26°C° 0 mm 4 m/s 757 mmHg 60%
    11:00 +27°C° 0 mm 4 m/s 757 mmHg 56%
    12:00 +27°C° 0 mm 4 m/s 757 mmHg 52%
    13:00 +28°C° 0 mm 4 m/s 757 mmHg 48%
    14:00 +28°C° 0 mm 4 m/s 757 mmHg 45%
    15:00 +28°C° 0 mm 4 m/s 757 mmHg 43%
    16:00 +28°C° 0 mm 4 m/s 757 mmHg 41%
    17:00 +27°C° 0 mm 3 m/s 757 mmHg 45%
    18:00 +25°C° 0 mm 2 m/s 757 mmHg 50%
    19:00 +23°C° 0 mm 2 m/s 757 mmHg 54%
    20:00 +22°C° 0 mm 1 m/s 757 mmHg 57%
    21:00 +21°C° 0 mm 1 m/s 757 mmHg 59%
    22:00 +21°C° 0 mm 1 m/s 757 mmHg 61%
    23:00 +20°C° 0 mm 1 m/s 757 mmHg 62%

    22 Août, Mercredi

    Heure Température Précipitation Vent Pression Humidité
    00:00 +20°C° 0 mm 1 m/s 757 mmHg 63%
    01:00 +20°C° 0 mm 1 m/s 757 mmHg 64%
    02:00 +18°C° 0 mm 2 m/s 757 mmHg 65%
    03:00 +18°C° 0 mm 2 m/s 757 mmHg 65%
    04:00 +18°C° 0 mm 2 m/s 757 mmHg 66%
    05:00 +19°C° 0 mm 2 m/s 757 mmHg 65%
    06:00 +20°C° 0 mm 2 m/s 757 mmHg 63%
    07:00 +21°C° 0 mm 2 m/s 757 mmHg 62%
    08:00 +24°C° 0 mm 3 m/s 757 mmHg 57%
    09:00 +26°C° 0 mm 3 m/s 757 mmHg 52%
    10:00 +28°C° 0 mm 3 m/s 757 mmHg 47%
    11:00 +28°C° 0 mm 3 m/s 757 mmHg 46%
    12:00 +29°C° 0 mm 3 m/s 757 mmHg 46%
    13:00 +29°C° 0 mm 3 m/s 756 mmHg 45%
    14:00 +29°C° 0,2 mm 3 m/s 756 mmHg 47%
    15:00 +28°C° 0,2 mm 3 m/s 756 mmHg 49%
    16:00 +28°C° 0,2 mm 3 m/s 756 mmHg 51%
    17:00 +27°C° 0,1 mm 2 m/s 756 mmHg 57%
    18:00 +25°C° 0,1 mm 2 m/s 756 mmHg 63%
    19:00 +24°C° 0,1 mm 2 m/s 756 mmHg 69%
    20:00 +23°C° 0 mm 2 m/s 756 mmHg 73%
    21:00 +21°C° 0 mm 2 m/s 757 mmHg 77%
    22:00 +20°C° 0 mm 2 m/s 757 mmHg 80%
    23:00 +20°C° 0 mm 2 m/s 757 mmHg 82%
    Voir plus